星链-31811 (STARLINK-31811 )

导读

STARLINK-31811是美国太空探索技术公司SpaceX星链互联网卫星星座的成员,于2024年6月8日发射入轨。星链计划旨在构建全球卫星互联网,该卫星继承了星链星座低轨运行设计,可提供宽带网络通信服务,补网增强星座覆盖能力,为全球偏远地区等场景提供网络接入支持。

Basic Information
目录编号:
60051
目录名称:
STARLINK-31811
国际标识:
2024-112P
轨道中心:
EARTH
卫星名称:
星链-31811
卫星全名:
星链-31811 (STARLINK-31811 )
卫星状态:
在轨 (已飞行740 天)
发射日期:
2024-06-08 UTC
国别 :
美国 (US)
星等 :
--
Orbit Information
数据来源 国际轨道数据 AOE轨道数据
星历时间 2026-06-18T01:28:05+0800
9小时前
查看轨道信息
2026-06-13T02:00:00+0800
5天前
查看轨道信息
半长轴 6848.88km 6848.855km
偏心率 0.000103 0.0000365
轨道倾角 53.163° 53.162°
近地点辐角 84.789° 120.426°
升交点赤经 333.276° 356.447°
平近点角 275.323° 135.927°
近地点 470.037km 470.468km
远地点 471.449km 470.968km
周期 94.013分钟 94.013分钟
每日圈数 15.316993 15.317076
Detailed Information
固有亮度:
5
最大亮度:
1.5
卫星平台:
Starlink v2.0 mini
覆盖范围:
全球
运营商:
太空探索技术公司
运营商所在国:
美国
制造商(研发单位):
太空探索技术公司
制造商所在国:
美国
使用方式:
暂无
Satellite Introduction
星链(Starlink)计划是由太空探索技术公司(SpaceX)提出的一个巨型低轨卫星互联网星座项目,计划在2019年至2024年间在太空搭建由约1.2万颗卫星组成的“星链”网络,其中1584颗将部署在地球上空550千米处的近地轨道,并从2020年开始工作。该卫星仍在工作。
2D Orbit Map
3D Orbit Map
Orbit Altitude Analysis Chart
Orbit Inclination Analysis Chart
Orbit Comprehensive Analysis Chart
View Comprehensive Chart